Regional Weather Roundup
Issued by NWS

Home | Current Version | Previous Version | Graphics & Text | Print | Product List | Glossary On
Versions: 1 2 3 4 5 6 7 8 9 10 11 12 13 14 15 16 17 18 19 20 21 22 23 24 25 26 27 28 29 30 31 32 33 34 35 36 37 38 39 40 41 42 43 44 45 46 47 48 49 50
000
ASUS43 KTOP 201759
RWRKS

WEATHER ROUNDUP FOR KANSAS
NATIONAL WEATHER SERVICE GOODLAND KS
100 PM CDT WED SEP 20 2017

NOTE:  "FAIR" INDICATES FEW OR NO CLOUDS BELOW 12,000 FEET WITH NO
SIGNIFICANT WEATHER AND/OR OBSTRUCTIONS TO VISIBILITY.

KSZ001>006-013>018-027>032-041>047-201900-
NORTHWEST KANSAS

CITY           SKY/WX    TMP DP  RH WIND       PRES   REMARKS
GOODLAND       SUNNY     71  23  16 CALM      29.98S
6HR MIN TEMP:  41; 6HR MAX TEMP:  72;

HAYS           SUNNY     78  41  26 N12G18    29.89F
HILL CITY      SUNNY     77  37  23 NE8       29.93S
6HR MIN TEMP:  52; 6HR MAX TEMP:  77;

RUSSELL        SUNNY     80  45  28 N13G18    29.87F
6HR MIN TEMP:  57; 6HR MAX TEMP:  80;

$$

KSZ061>065-074>080-084>089-201900-
SOUTHWEST KANSAS

CITY           SKY/WX    TMP DP  RH WIND       PRES   REMARKS
DODGE CITY     SUNNY     80  40  23 N14G21    29.91F
6HR MIN TEMP:  53; 6HR MAX TEMP:  80;

ELKHART          N/A     70  40  33 NE5         N/A
GARDEN CITY    SUNNY     76  32  20 NE15G23   29.93F
6HR MIN TEMP:  51; 6HR MAX TEMP:  76;

GREAT BEND     SUNNY     80  47  31 N15G21    29.87F
LIBERAL        SUNNY     75  43  31 NE12G23   29.95F
$$

KSZ066>073-081>083-090>101-201900-
SOUTHEAST KANSAS

CITY           SKY/WX    TMP DP  RH WIND       PRES   REMARKS
CHANUTE        PTSUNNY   88  73  61 SW17G24   29.83S HX  95
6HR MIN TEMP:  75; 6HR MAX TEMP:  89;

COFFEYVILLE    SUNNY     89  73  59 S16G25    29.82S HX  97
6HR MIN TEMP:  76; 6HR MAX TEMP:  90;

HUTCHINSON     SUNNY     82  55  39 N10       29.84R
6HR MIN TEMP:  63; 6HR MAX TEMP:  82;

MEDICINE LODGE   N/A     82  53  36 N6        29.83S
NEWTON         SUNNY     84  65  52 SW9       29.83S
WICHITA INTL   MOSUNNY   86  65  49 SW9G18    29.81S
6HR MIN TEMP:  68; 6HR MAX TEMP:  87;

WICHITA JABRA  MOSUNNY   86  67  52 S10       29.81
6HR MIN TEMP:  71; 6HR MAX TEMP:  87;

WINFIELD       CLOUDY    86  71  60 SW13      29.83S
6HR MIN TEMP:  70; 6HR MAX TEMP:  87;

$$

KSZ007>012-019>026-033>040-048>060-102>105-201900-
NORTHEAST KANSAS

CITY           SKY/WX    TMP DP  RH WIND       PRES   REMARKS
CONCORDIA      SUNNY     78  53  41 N13       29.85S
6HR MIN TEMP:  60; 6HR MAX TEMP:  78;

EMPORIA        PTSUNNY   85  69  58 SW12      29.80S
6HR MIN TEMP:  71; 6HR MAX TEMP:  86;

LAWRENCE       PTSUNNY   85  72  65 S10       29.80R
6HR MIN TEMP:  73; 6HR MAX TEMP:  85;

MANHATTAN      SUNNY     85  63  47 SW7       29.80R
6HR MIN TEMP:  72; 6HR MAX TEMP:  85;

OLATHE IND     CLOUDY    83  72  69 S16       29.82S
6HR MIN TEMP:  73; 6HR MAX TEMP:  84;

OLATHE EXE     CLOUDY    83  74  74 S13       29.82S
6HR MIN TEMP:  72; 6HR MAX TEMP:  83;

SALINA         SUNNY     83  54  36 N12       29.83S
6HR MIN TEMP:  65; 6HR MAX TEMP:  83;

TOPEKA BILLARD CLOUDY    86  71  60 S9G18     29.79R
6HR MIN TEMP:  74; 6HR MAX TEMP:  86;

TOPEKA FORBES  PTSUNNY   85  71  63 SW10      29.80R
6HR MIN TEMP:  74; 6HR MAX TEMP:  86;

$$




USA.gov is the U.S. government's official web portal to all federal, state and local government web resources and services.